Flag for Japan Weather past 2 weeks in Sendai, Japan

Now
63 °F

Fog.


Feels Like: 63 °F
Forecast: 54 / 61 °F
Wind: 2 mph from North

Location: Sendai Airport

Current Time: Oct 22, 2014 at 12:56:19 AM

Latest Report: Oct 21, 2014 at 9:00 PM


Visibility: 1 mi

Pressure: 29.89 "Hg

Humidity: 100%

Dew point: 63 °F

Location of SendaiLocation

Historic Weather in Sendai — Graph

°F

Sendai temperature yesterday

Maximum temperature yesterday: 68 °F (at 11:00 AM)
Minimum temperature yesterday: 61 °F (at 7:00 AM)
Average temperature yesterday: 64 °F

Past Weeks' High & Low Weather Summary

 TemperatureHumidityPressure
High77 °F (Oct 10, 1:00 PM)100% (Oct 13, 6:00 PM)30.36 "Hg (Oct 13, 6:00 PM)
Low46 °F (Oct 18, 6:00 AM)33% (Oct 11, 2:00 PM)29.06 "Hg (Oct 14, 5:45 AM)
Average62 °F70%30.06 "Hg
* Reported Oct 6 9:00 PM — Oct 21 9:00 PM, Sendai, Weather by CustomWeather, © 2014

Note: Actual official high and low records may vary slightly from our data, if they occured in-between our weather recording intervals... More about our weather records

Advertising

Sendai weather history for previous 24 hours

 ConditionsComfort  
Time TempWeatherWind HumidityBarometerVisibility
9:00 PM
Oct 21
63 °FFog.2 mph100%29.89 "Hg1 mi
8:00 PM63 °FFog.1 mph100%29.89 "Hg1 mi
7:00 PM63 °FSprinkles. Fog.1 mph100%29.89 "Hg2 mi
6:00 PM63 °FSprinkles. Fog.2 mph100%29.89 "Hg3 mi
5:00 PM64 °FPartly cloudy.No wind94%29.89 "Hg4 mi
4:00 PM64 °FSprinkles. Broken clouds.2 mph94%29.92 "Hg4 mi
3:00 PM64 °FSprinkles. Broken clouds.2 mph94%29.92 "Hg4 mi
2:00 PM64 °FSprinkles. Broken clouds.3 mph94%29.92 "Hg4 mi
1:00 PM64 °FSprinkles. Broken clouds.7 mph94%29.95 "Hg4 mi
12:00 PM66 °FPartly sunny.6 mph83%29.95 "HgN/A
11:00 AM68 °FPartly sunny.7 mph78%29.98 "HgN/A
10:00 AM66 °FPartly sunny.3 mph83%30.01 "HgN/A
9:00 AM64 °FBroken clouds.3 mph83%30.01 "HgN/A
8:00 AM63 °FPartly sunny.2 mph88%30.04 "HgN/A
7:00 AM61 °FBroken clouds.2 mph88%30.04 "HgN/A
6:00 AM63 °FPartly sunny.9 mph83%30.04 "HgN/A
Weather by CustomWeather, © 2014

See weather overviewHow to use our weather pages